Regional Weather Roundup
Issued by NWS

Home | Current Version | Previous Version | Text Only | Print | Product List | Glossary On
Versions: 1 2 3 4 5 6 7 8 9 10 11 12 13 14 15 16 17 18 19 20 21 22 23 24 25 26 27 28 29 30 31 32 33 34 35 36 37 38 39 40 41 42 43 44 45 46 47 48 49 50
000
ASUS44 KJAN 291710
RWRMS

MISSISSIPPI HOURLY WEATHER ROUNDUP
NATIONAL WEATHER SERVICE JACKSON MS
1200 PM CDT FRI APR 29 2016

NOTE: "FAIR: INDICATES FEW OR NO CLOUDS BELOW 12,000 FEET WITH NO
SIGNIFICANT WEATHER AND/OR OBSTRUCTIONS TO VISIBILITY.

MSZ001>002-007>008-010>013-018>021-025>028-034>036-291800-
NORTHWEST MISSISSIPPI

CITY           SKY/WX    TMP DP  RH WIND       PRES   REMARKS
BATESVILLE     FAIR      71  67  88 CALM      29.89F
CLEVELAND      CLOUDY    74  74 100 NW10      29.89R
GREENWOOD      CLOUDY    80  70  71 SE12      29.86F
GREENVILLE     CLOUDY    76  69  79 W13       29.91R
OLIVE BRANCH   TSTM      64  63  94 E8        29.89F
OXFORD         FAIR      70  66  88 SE6       29.92S
TUNICA         RAIN      64  61  88 NW24G36   29.95R
WINONA         PTSUNNY   78  70  75 SE13G20   29.88F
$$

MSZ003>006-009-014>017-022>024-029>033-037>039-291800-
NORTHEAST MISSISSIPPI

CITY           SKY/WX    TMP DP  RH WIND       PRES   REMARKS
COLUMBUS AFB   CLOUDY    82  69  64 SE15      29.91F
CORINTH        FAIR      72  59  64 E5        29.94F
GOLDN TRIANGLE PTSUNNY   81  64  57 S16G23    29.92F
TUPELO         CLOUDY    78  63  59 E10       29.92F
$$

MSZ040-058-291800-
CENTRAL MISSISSIPPI

CITY           SKY/WX    TMP DP  RH WIND       PRES   REMARKS
JACKSON INTL   CLOUDY    83  68  60 S15G24    29.89F
JACKSON HAWKNS PTSUNNY   81  69  67 S17       29.89F
MADISON        FAIR      81  68  65 SE7       29.88F
MERIDIAN KEY   PTSUNNY   82  68  62 SE9       29.93F
MERIDIAN NAS   CLOUDY    83  69  62 SE10      29.93F
VICKSBURG TVR  CLOUDY    81  70  69 S18G29    29.86S
VICKSBURG VKS  MOSUNNY   81  70  69 S17G25    29.85F
$$

MSZ059>079-291800-
SOUTH MISSISSIPPI

CITY           SKY/WX    TMP DP  RH WIND       PRES   REMARKS
BROOKHAVEN     PTSUNNY  N/A N/A N/A SE16G22   29.93S
COLUMBIA       FAIR      82  70  65 SE14G22   29.96F
HATTIESBURG    PTSUNNY   85  68  56 S14       29.94F
MCCOMB         PTSUNNY   80  70  71 S20G25    29.91F
NATCHEZ        CLOUDY    82  70  65 SE14G29   29.86F
PINE BELT      MOSUNNY   82  70  65 SE14      29.95F
$$

MSZ080>082-291800-
COASTAL MISSISSIPPI

CITY           SKY/WX    TMP DP  RH WIND       PRES   REMARKS
BAY ST LOUIS   CLOUDY    81  68  65 S14G21    29.96F
BILOXI         CLOUDY    80  76  88 S12G18    29.97S
PASCAGOULA     MOSUNNY   82  72  71 SE12      29.97S
GULFPORT       PTSUNNY   80  73  79 S12G22    29.96F
$$




USA.gov is the U.S. government's official web portal to all federal, state and local government web resources and services.